Hourly Data Report for October 10, 2013

All times are specified in Local Standard Time (LST). Add 1 hour to adjust for Daylight Saving Time where and when it is observed.

ST LEONARD CS
NEW BRUNSWICK

47°09'28.050" N
67°49'55.014" W
245.00 m
810I001
71019
WIY

Download Data

Hourly Data (October 2013)
Hourly Data Report for October 10, 2013
Temp Definition
°C
Dew Point Temp Definition
°C
Rel Hum Definition
%
Wind Dir Definition
10's deg

Wind Spd Definition
km/h
Visibility Definition
km
Stn Press Definition
kPa
Hmdx Definition


Wind Chill Definition


Weather Definition


TIME
00:00 8.2 4.4 77 19 11   99.51     LegendNANA
01:00 8.1 4.3 77 18 7   99.49     LegendNANA
02:00 7.0 3.9 81 19 7   99.47     LegendNANA
03:00 4.4 3.1 91 15 6   99.46     LegendNANA
04:00 4.6 3.2 91 16 6   99.42     LegendNANA
05:00 5.0 3.4 89 15 7   99.39     LegendNANA
06:00 4.2 2.9 91 18 6   99.38     LegendNANA
07:00 4.0 2.9 93 17 6   99.40     LegendNANA
08:00 6.6 4.0 83 16 6   99.42     LegendNANA
09:00 10.1 5.1 71 20 6   99.43     LegendNANA
10:00 13.0 5.7 61 20 2   99.40     LegendNANA
11:00 15.1 6.4 56 19 6   99.35     LegendNANA
12:00 17.7 6.6 48 23 6   99.31     LegendNANA
13:00 19.6 7.5 45 24 11   99.26     LegendNANA
14:00 20.4 9.0 48 19 11   99.21     LegendNANA
15:00 21.7 7.5 40 24 9   99.16     LegendNANA
16:00 21.7 7.4 40 25 13   99.14     LegendNANA
17:00 21.0 8.1 43 24 9   99.14     LegendNANA
18:00 18.4 8.0 51 22 4   99.16     LegendNANA
19:00 15.0 8.5 65 22 4   99.17     LegendNANA
20:00 12.1 8.4 78 17 2   99.16     LegendNANA
21:00 11.7 8.0 78   0   99.19     LegendNANA
22:00 9.6 7.7 88   0   99.19     LegendNANA
23:00 9.3 7.5 89   0   99.19     LegendNANA

Notes on Data Quality.

Legend

  • E = Estimated
  • M = Missing
  • NA = Not Available
  • ‡ = Partner data that is not subject to review by the National Climate Archives
Date modified: